Time,TemperatureF,DewpointF,PressureIn,WindDirection,WindDirectionDegrees,WindSpeedMPH,WindSpeedGustMPH,Humidity,HourlyPrecipIn,Conditions,Clouds,dailyrainin,SoftwareType,DateUTC
2013-05-13 00:00:00,51.7,33.7,30.12,NW,315,0.4,0.4,50,0.00,,,0.00,WUHU216HW,2013-05-13 04:00:00,
2013-05-13 00:01:00,51.7,33.7,30.12,NW,315,0.4,0.4,50,0.00,,,0.00,WUHU216HW,2013-05-13 04:01:00,
2013-05-13 00:02:00,51.5,33.9,30.12,WNW,298,0.3,0.4,51,0.00,,,0.00,WUHU216HW,2013-05-13 04:02:00,
2013-05-13 00:07:00,51.1,33.7,30.12,North,0,0.0,0.4,51,0.00,,,0.00,WUHU216HW,2013-05-13 04:07:00,
2013-05-13 00:12:00,50.9,33.9,30.13,ENE,68,0.0,0.2,52,0.00,,,0.00,WUHU216HW,2013-05-13 04:12:00,
2013-05-13 00:17:00,50.2,33.8,30.13,ENE,68,0.0,0.0,53,0.00,,,0.00,WUHU216HW,2013-05-13 04:17:00,
2013-05-13 00:23:00,50.0,34.5,30.13,ENE,68,0.7,0.7,55,0.00,,,0.00,WUHU216HW,2013-05-13 04:23:00,
2013-05-13 00:28:00,49.9,34.7,30.13,NNW,338,0.0,0.7,56,0.00,,,0.00,WUHU216HW,2013-05-13 04:28:00,
2013-05-13 00:33:00,49.7,34.1,30.13,NNW,338,0.0,0.0,55,0.00,,,0.00,WUHU216HW,2013-05-13 04:33:00,
2013-05-13 00:38:00,49.3,34.2,30.13,NNW,338,0.0,0.0,56,0.00,,,0.00,WUHU216HW,2013-05-13 04:38:00,
2013-05-13 00:43:00,49.0,33.9,30.13,NNE,23,0.0,0.0,56,0.00,,,0.00,WUHU216HW,2013-05-13 04:43:00,
2013-05-13 00:48:00,48.6,33.6,30.13,NNE,23,0.0,0.0,56,0.00,,,0.00,WUHU216HW,2013-05-13 04:48:00,
2013-05-13 00:53:00,48.6,34.0,30.13,NNW,338,0.0,0.0,57,0.00,,,0.00,WUHU216HW,2013-05-13 04:53:00,
2013-05-13 00:58:00,48.2,34.7,30.13,NW,315,0.0,0.0,59,0.00,,,0.00,WUHU216HW,2013-05-13 04:58:00,
2013-05-13 01:03:00,48.1,34.5,30.13,NNW,338,0.0,0.0,59,0.00,,,0.00,WUHU216HW,2013-05-13 05:03:00,
2013-05-13 01:09:00,48.1,34.5,30.13,North,0,0.0,0.0,59,0.00,,,0.00,WUHU216HW,2013-05-13 05:09:00,
2013-05-13 01:13:00,47.9,34.7,30.13,North,0,0.0,0.0,60,0.00,,,0.00,WUHU216HW,2013-05-13 05:13:00,
2013-05-13 01:18:00,47.5,34.4,30.13,NE,45,0.0,0.0,60,0.00,,,0.00,WUHU216HW,2013-05-13 05:18:00,
2013-05-13 01:23:00,47.3,34.6,30.13,NNW,338,0.0,0.0,61,0.00,,,0.00,WUHU216HW,2013-05-13 05:23:00,
2013-05-13 01:28:00,47.3,34.6,30.13,NNW,338,0.4,0.4,61,0.00,,,0.00,WUHU216HW,2013-05-13 05:28:00,
2013-05-13 01:34:00,47.3,34.6,30.13,NW,315,0.0,0.4,61,0.00,,,0.00,WUHU216HW,2013-05-13 05:34:00,
2013-05-13 01:39:00,47.2,34.8,30.13,North,0,0.0,0.0,62,0.00,,,0.00,WUHU216HW,2013-05-13 05:39:00,
2013-05-13 01:44:00,47.0,34.7,30.13,ENE,68,0.0,0.0,62,0.00,,,0.00,WUHU216HW,2013-05-13 05:44:00,
2013-05-13 01:49:00,46.8,34.0,30.13,ENE,68,0.0,0.0,61,0.00,,,0.00,WUHU216HW,2013-05-13 05:49:00,
2013-05-13 01:54:00,46.6,33.8,30.13,NE,45,0.0,0.0,61,0.00,,,0.00,WUHU216HW,2013-05-13 05:54:00,
2013-05-13 01:59:00,46.3,33.9,30.14,NW,315,0.0,0.0,62,0.00,,,0.00,WUHU216HW,2013-05-13 05:59:00,
2013-05-13 02:04:00,46.1,33.8,30.14,NW,315,0.2,0.2,62,0.00,,,0.00,WUHU216HW,2013-05-13 06:04:00,
2013-05-13 02:09:00,45.7,33.9,30.14,NW,315,0.0,0.2,63,0.00,,,0.00,WUHU216HW,2013-05-13 06:09:00,
2013-05-13 02:14:00,45.7,33.9,30.14,NNW,338,0.0,0.2,63,0.00,,,0.00,WUHU216HW,2013-05-13 06:14:00,
2013-05-13 02:19:00,45.5,34.0,30.14,NNE,23,0.0,0.0,64,0.00,,,0.00,WUHU216HW,2013-05-13 06:19:00,
2013-05-13 02:24:00,45.4,33.8,30.14,NNE,23,0.0,0.0,64,0.00,,,0.00,WUHU216HW,2013-05-13 06:24:00,
2013-05-13 02:29:00,45.2,33.7,30.14,NNW,338,0.0,0.0,64,0.00,,,0.00,WUHU216HW,2013-05-13 06:29:00,
2013-05-13 02:34:00,45.2,34.1,30.13,NW,315,0.0,0.0,65,0.00,,,0.00,WUHU216HW,2013-05-13 06:34:00,
2013-05-13 02:40:00,45.0,33.9,30.13,NW,315,0.0,0.0,65,0.00,,,0.00,WUHU216HW,2013-05-13 06:40:00,
2013-05-13 02:45:00,44.6,33.6,30.13,NW,315,0.0,0.0,65,0.00,,,0.00,WUHU216HW,2013-05-13 06:45:00,
2013-05-13 02:50:00,44.5,33.8,30.14,NW,315,0.0,0.0,66,0.00,,,0.00,WUHU216HW,2013-05-13 06:50:00,
2013-05-13 02:55:00,44.6,34.3,30.14,NNW,338,0.0,0.0,67,0.00,,,0.00,WUHU216HW,2013-05-13 06:55:00,
2013-05-13 03:00:00,44.6,34.3,30.14,NNW,338,0.0,0.0,67,0.00,,,0.00,WUHU216HW,2013-05-13 07:00:00,
2013-05-13 03:05:00,44.5,34.2,30.14,NNW,338,0.0,0.0,67,0.00,,,0.00,WUHU216HW,2013-05-13 07:05:00,
2013-05-13 03:10:00,44.3,34.0,30.14,WSW,248,0.0,0.0,67,0.00,,,0.00,WUHU216HW,2013-05-13 07:10:00,
2013-05-13 03:15:00,43.9,34.0,30.14,WNW,293,0.0,0.0,68,0.00,,,0.00,WUHU216HW,2013-05-13 07:15:00,
2013-05-13 03:20:00,43.9,34.0,30.14,North,0,0.0,0.0,68,0.00,,,0.00,WUHU216HW,2013-05-13 07:20:00,
2013-05-13 03:25:00,43.9,34.0,30.14,WNW,293,0.0,0.0,68,0.00,,,0.00,WUHU216HW,2013-05-13 07:25:00,
2013-05-13 03:30:00,43.9,34.0,30.15,WNW,293,0.0,0.0,68,0.00,,,0.00,WUHU216HW,2013-05-13 07:30:00,
2013-05-13 03:35:00,43.7,33.8,30.15,WNW,293,0.0,0.0,68,0.00,,,0.00,WUHU216HW,2013-05-13 07:35:00,
2013-05-13 03:40:00,43.6,33.8,30.15,WNW,293,0.0,0.0,68,0.00,,,0.00,WUHU216HW,2013-05-13 07:40:00,
2013-05-13 03:45:00,43.4,33.9,30.16,WNW,293,0.0,0.0,69,0.00,,,0.00,WUHU216HW,2013-05-13 07:45:00,
2013-05-13 03:50:00,43.2,34.2,30.15,NW,315,0.0,0.0,70,0.00,,,0.00,WUHU216HW,2013-05-13 07:50:00,
2013-05-13 03:56:00,43.4,34.7,30.15,NW,315,0.0,0.2,71,0.00,,,0.00,WUHU216HW,2013-05-13 07:56:00,
2013-05-13 04:01:00,43.7,34.7,30.15,WNW,293,0.4,0.4,70,0.00,,,0.00,WUHU216HW,2013-05-13 08:01:00,
2013-05-13 04:06:00,43.9,35.2,30.16,SW,225,0.0,0.4,71,0.00,,,0.00,WUHU216HW,2013-05-13 08:06:00,
2013-05-13 04:11:00,43.4,34.7,30.16,NW,315,0.0,0.4,71,0.00,,,0.00,WUHU216HW,2013-05-13 08:11:00,
2013-05-13 04:16:00,43.2,34.2,30.16,NW,315,0.0,0.0,70,0.00,,,0.00,WUHU216HW,2013-05-13 08:16:00,
2013-05-13 04:21:00,43.2,34.5,30.16,WNW,293,0.0,0.0,71,0.00,,,0.00,WUHU216HW,2013-05-13 08:21:00,
2013-05-13 04:26:00,43.2,34.5,30.16,NW,315,0.0,0.0,71,0.00,,,0.00,WUHU216HW,2013-05-13 08:26:00,
2013-05-13 04:31:00,43.2,34.5,30.16,NNE,23,0.0,0.0,71,0.00,,,0.00,WUHU216HW,2013-05-13 08:31:00,
2013-05-13 04:36:00,43.0,34.3,30.16,NE,45,0.0,0.0,71,0.00,,,0.00,WUHU216HW,2013-05-13 08:36:00,
2013-05-13 04:41:00,42.8,34.2,30.16,NE,45,0.0,0.0,71,0.00,,,0.00,WUHU216HW,2013-05-13 08:41:00,
2013-05-13 04:47:00,42.8,34.2,30.17,NNE,23,0.0,0.0,71,0.00,,,0.00,WUHU216HW,2013-05-13 08:47:00,
2013-05-13 04:52:00,42.8,34.2,30.17,NNW,338,0.0,0.0,71,0.00,,,0.00,WUHU216HW,2013-05-13 08:52:00,
2013-05-13 04:57:00,42.8,34.2,30.17,NNW,338,0.0,0.0,71,0.00,,,0.00,WUHU216HW,2013-05-13 08:57:00,
2013-05-13 05:02:00,42.8,33.8,30.17,North,0,0.0,0.0,70,0.00,,,0.00,WUHU216HW,2013-05-13 09:02:00,
2013-05-13 05:07:00,42.7,34.0,30.17,NNW,338,0.0,0.0,71,0.00,,,0.00,WUHU216HW,2013-05-13 09:07:00,
2013-05-13 05:12:00,42.5,33.9,30.17,NE,45,0.0,0.0,71,0.00,,,0.00,WUHU216HW,2013-05-13 09:12:00,
2013-05-13 05:17:00,42.5,33.9,30.17,NNE,23,0.4,0.4,71,0.00,,,0.00,WUHU216HW,2013-05-13 09:17:00,
2013-05-13 05:22:00,42.5,33.9,30.17,North,0,0.0,0.4,71,0.00,,,0.00,WUHU216HW,2013-05-13 09:22:00,
2013-05-13 05:27:00,42.5,33.9,30.17,ENE,68,0.0,0.0,71,0.00,,,0.00,WUHU216HW,2013-05-13 09:27:00,
2013-05-13 05:32:00,42.5,33.9,30.17,ENE,68,0.0,0.0,71,0.00,,,0.00,WUHU216HW,2013-05-13 09:32:00,
2013-05-13 05:37:00,42.5,33.9,30.17,NE,45,0.0,0.0,71,0.00,,,0.00,WUHU216HW,2013-05-13 09:37:00,
2013-05-13 05:42:00,42.7,34.0,30.17,NE,45,0.0,0.2,71,0.00,,,0.00,WUHU216HW,2013-05-13 09:42:00,
2013-05-13 05:47:00,42.7,34.0,30.17,NNE,23,0.0,0.2,71,0.00,,,0.00,WUHU216HW,2013-05-13 09:47:00,
2013-05-13 05:52:00,42.7,34.0,30.17,North,0,0.0,0.0,71,0.00,,,0.00,WUHU216HW,2013-05-13 09:52:00,
2013-05-13 05:57:00,42.5,33.9,30.17,ENE,68,0.0,0.0,71,0.00,,,0.00,WUHU216HW,2013-05-13 09:57:00,
2013-05-13 06:03:00,42.3,33.7,30.18,NE,45,0.4,0.4,71,0.00,,,0.00,WUHU216HW,2013-05-13 10:03:00,
2013-05-13 06:08:00,42.3,33.7,30.18,NE,45,0.4,0.4,71,0.00,,,0.00,WUHU216HW,2013-05-13 10:08:00,
2013-05-13 06:13:00,42.3,34.3,30.18,NE,45,0.2,0.4,73,0.00,,,0.00,WUHU216HW,2013-05-13 10:13:00,
2013-05-13 06:18:00,42.1,33.8,30.18,ENE,68,0.0,0.4,72,0.00,,,0.00,WUHU216HW,2013-05-13 10:18:00,
2013-05-13 06:23:00,41.8,33.8,30.18,NNE,23,1.1,1.1,73,0.00,,,0.00,WUHU216HW,2013-05-13 10:23:00,
2013-05-13 06:28:00,41.8,34.0,30.19,NE,45,1.1,1.1,74,0.00,,,0.00,WUHU216HW,2013-05-13 10:28:00,
2013-05-13 06:33:00,41.8,33.8,30.19,NE,45,0.0,1.1,73,0.00,,,0.00,WUHU216HW,2013-05-13 10:33:00,
2013-05-13 06:38:00,41.6,33.6,30.20,North,0,0.7,0.7,73,0.00,,,0.00,WUHU216HW,2013-05-13 10:38:00,
2013-05-13 06:43:00,41.4,33.7,30.20,North,0,0.0,0.7,74,0.00,,,0.00,WUHU216HW,2013-05-13 10:43:00,
2013-05-13 06:48:00,41.4,33.7,30.20,NNE,23,0.0,0.0,74,0.00,,,0.00,WUHU216HW,2013-05-13 10:48:00,
2013-05-13 06:53:00,41.4,33.7,30.20,NNW,338,0.0,0.2,74,0.00,,,0.00,WUHU216HW,2013-05-13 10:53:00,
2013-05-13 06:58:00,41.6,34.2,30.21,NNE,23,0.0,0.2,75,0.00,,,0.00,WUHU216HW,2013-05-13 10:58:00,
2013-05-13 07:03:00,41.9,34.6,30.21,North,0,0.0,0.0,75,0.00,,,0.00,WUHU216HW,2013-05-13 11:03:00,
2013-05-13 07:08:00,42.1,34.7,30.21,NNE,23,0.0,0.0,75,0.00,,,0.00,WUHU216HW,2013-05-13 11:08:00,
2013-05-13 07:13:00,42.3,34.9,30.21,ENE,68,0.0,0.0,75,0.00,,,0.00,WUHU216HW,2013-05-13 11:13:00,
2013-05-13 07:18:00,42.7,35.3,30.22,NNE,23,0.4,1.1,75,0.00,,,0.00,WUHU216HW,2013-05-13 11:18:00,
2013-05-13 07:23:00,42.8,35.5,30.22,NNE,23,0.2,1.1,75,0.00,,,0.00,WUHU216HW,2013-05-13 11:23:00,
2013-05-13 07:29:00,43.2,35.8,30.22,North,0,0.0,0.7,75,0.00,,,0.00,WUHU216HW,2013-05-13 11:29:00,
2013-05-13 07:34:00,43.6,36.2,30.22,North,0,1.1,1.1,75,0.00,,,0.00,WUHU216HW,2013-05-13 11:34:00,
2013-05-13 07:39:00,44.3,36.5,30.22,North,10,0.8,1.1,74,0.00,,,0.00,WUHU216HW,2013-05-13 11:39:00,
2013-05-13 07:44:00,44.5,36.6,30.22,NNE,23,0.4,0.9,74,0.00,,,0.00,WUHU216HW,2013-05-13 11:44:00,
2013-05-13 07:49:00,45.0,37.2,30.22,NNE,23,0.0,0.4,74,0.00,,,0.00,WUHU216HW,2013-05-13 11:49:00,
2013-05-13 07:54:00,45.7,37.9,30.23,NNE,23,1.6,1.6,74,0.00,,,0.00,WUHU216HW,2013-05-13 11:54:00,
2013-05-13 07:59:00,46.3,38.1,30.23,North,0,1.6,1.6,73,0.00,,,0.00,WUHU216HW,2013-05-13 11:59:00,
2013-05-13 08:04:00,47.5,38.3,30.23,NNE,23,1.1,1.6,70,0.00,,,0.00,WUHU216HW,2013-05-13 12:04:00,
2013-05-13 08:09:00,48.1,38.0,30.23,East,90,1.1,1.1,68,0.00,,,0.00,WUHU216HW,2013-05-13 12:09:00,
2013-05-13 08:14:00,49.0,38.8,30.23,NW,315,1.3,1.3,68,0.00,,,0.00,WUHU216HW,2013-05-13 12:14:00,
2013-05-13 08:19:00,54.0,42.0,30.23,North,0,2.7,2.7,64,0.00,,,0.00,WUHU216HW,2013-05-13 12:19:00,
2013-05-13 08:24:00,56.3,41.2,30.23,NE,45,2.5,2.7,57,0.00,,,0.00,WUHU216HW,2013-05-13 12:24:00,
2013-05-13 08:29:00,58.0,42.9,30.24,WNW,299,1.3,2.5,57,0.00,,,0.00,WUHU216HW,2013-05-13 12:29:00,
2013-05-13 08:34:00,58.9,41.3,30.24,NNE,23,1.3,2.5,52,0.00,,,0.00,WUHU216HW,2013-05-13 12:34:00,
2013-05-13 08:39:00,58.7,40.7,30.24,NNW,338,0.9,1.3,51,0.00,,,0.00,WUHU216HW,2013-05-13 12:39:00,
2013-05-13 08:44:00,58.0,40.0,30.24,ESE,113,0.9,1.3,51,0.00,,,0.00,WUHU216HW,2013-05-13 12:44:00,
2013-05-13 08:49:00,57.6,39.3,30.24,NNE,23,2.5,2.5,50,0.00,,,0.00,WUHU216HW,2013-05-13 12:49:00,
2013-05-13 08:55:00,56.9,39.0,30.24,NNE,23,2.2,3.4,51,0.00,,,0.00,WUHU216HW,2013-05-13 12:55:00,
2013-05-13 09:00:00,56.5,38.2,30.24,NNW,338,1.7,3.4,50,0.00,,,0.00,WUHU216HW,2013-05-13 13:00:00,
2013-05-13 09:05:00,56.5,37.0,30.25,North,0,3.4,3.4,48,0.00,,,0.00,WUHU216HW,2013-05-13 13:05:00,
2013-05-13 09:10:00,56.5,37.0,30.25,WNW,287,2.0,3.4,48,0.00,,,0.00,WUHU216HW,2013-05-13 13:10:00,
2013-05-13 09:15:00,56.7,34.9,30.25,ENE,68,3.4,3.4,44,0.00,,,0.00,WUHU216HW,2013-05-13 13:15:00,
2013-05-13 09:20:00,57.1,37.0,30.25,North,359,3.3,3.4,47,0.00,,,0.00,WUHU216HW,2013-05-13 13:20:00,
2013-05-13 09:25:00,57.4,37.4,30.25,ENE,68,1.1,3.4,47,0.00,,,0.00,WUHU216HW,2013-05-13 13:25:00,
2013-05-13 09:30:00,57.6,36.9,30.25,ENE,68,1.6,1.6,46,0.00,,,0.00,WUHU216HW,2013-05-13 13:30:00,
2013-05-13 09:35:00,57.6,36.4,30.25,ESE,113,0.4,1.6,45,0.00,,,0.00,WUHU216HW,2013-05-13 13:35:00,
2013-05-13 09:41:00,58.0,38.3,30.25,West,270,1.6,1.8,48,0.00,,,0.00,WUHU216HW,2013-05-13 13:41:00,
2013-05-13 09:46:00,58.9,39.8,30.25,WSW,248,0.7,1.8,49,0.00,,,0.00,WUHU216HW,2013-05-13 13:46:00,
2013-05-13 09:51:00,59.6,38.7,30.25,NW,315,1.8,1.8,46,0.00,,,0.00,WUHU216HW,2013-05-13 13:51:00,
2013-05-13 09:56:00,59.6,35.8,30.25,NE,45,5.4,5.4,41,0.00,,,0.00,WUHU216HW,2013-05-13 13:56:00,
2013-05-13 10:01:00,59.2,36.1,30.25,North,0,1.1,5.4,42,0.00,,,0.00,WUHU216HW,2013-05-13 14:01:00,
2013-05-13 10:06:00,59.6,37.0,30.25,WSW,248,1.8,5.4,43,0.00,,,0.00,WUHU216HW,2013-05-13 14:06:00,
2013-05-13 10:11:00,59.8,36.0,30.25,NNE,23,2.5,2.5,41,0.00,,,0.00,WUHU216HW,2013-05-13 14:11:00,
2013-05-13 10:16:00,59.9,36.1,30.25,NE,45,2.5,2.5,41,0.00,,,0.00,WUHU216HW,2013-05-13 14:16:00,
2013-05-13 10:21:00,59.8,36.0,30.25,NE,45,0.9,2.5,41,0.00,,,0.00,WUHU216HW,2013-05-13 14:21:00,
2013-05-13 10:26:00,60.8,38.7,30.25,WNW,286,2.2,3.1,44,0.00,,,0.00,WUHU216HW,2013-05-13 14:26:00,
2013-05-13 10:31:00,61.6,38.7,30.25,NNE,23,2.7,3.1,43,0.00,,,0.00,WUHU216HW,2013-05-13 14:31:00,
2013-05-13 10:36:00,61.9,38.5,30.25,NNW,338,1.3,2.7,42,0.00,,,0.00,WUHU216HW,2013-05-13 14:36:00,
2013-05-13 10:41:00,61.6,35.6,30.25,ENE,68,1.8,2.7,38,0.00,,,0.00,WUHU216HW,2013-05-13 14:41:00,
2013-05-13 10:46:00,61.4,36.1,30.25,NNW,338,3.6,3.6,39,0.00,,,0.00,WUHU216HW,2013-05-13 14:46:00,
2013-05-13 10:51:00,61.0,36.6,30.25,NNW,338,2.5,3.6,40,0.00,,,0.00,WUHU216HW,2013-05-13 14:51:00,
2013-05-13 10:56:00,61.4,36.1,30.25,WNW,285,0.6,3.6,39,0.00,,,0.00,WUHU216HW,2013-05-13 14:56:00,
2013-05-13 11:01:00,62.3,39.4,30.25,ENE,68,0.4,2.5,43,0.00,,,0.00,WUHU216HW,2013-05-13 15:01:00,
2013-05-13 11:07:00,63.0,38.9,30.25,NE,45,0.9,0.9,41,0.00,,,0.00,WUHU216HW,2013-05-13 15:07:00,
2013-05-13 11:12:00,62.3,36.2,30.25,West,270,4.0,4.0,38,0.00,,,0.00,WUHU216HW,2013-05-13 15:12:00,
2013-05-13 11:17:00,62.5,35.6,30.25,NNE,23,1.8,4.0,37,0.00,,,0.00,WUHU216HW,2013-05-13 15:17:00,
2013-05-13 11:22:00,62.8,37.5,30.25,WSW,248,0.7,4.0,39,0.00,,,0.00,WUHU216HW,2013-05-13 15:22:00,
2013-05-13 11:27:00,63.7,37.5,30.25,West,261,1.2,1.8,38,0.00,,,0.00,WUHU216HW,2013-05-13 15:27:00,
2013-05-13 11:32:00,63.7,39.0,30.25,WSW,248,6.7,6.7,40,0.00,,,0.00,WUHU216HW,2013-05-13 15:32:00,
2013-05-13 11:37:00,64.4,38.2,30.25,WSW,248,6.5,6.7,38,0.00,,,0.00,WUHU216HW,2013-05-13 15:37:00,
2013-05-13 11:42:00,63.7,33.2,30.24,North,0,4.9,6.7,32,0.00,,,0.00,WUHU216HW,2013-05-13 15:42:00,
2013-05-13 11:47:00,63.5,34.5,30.24,WNW,293,1.8,6.5,34,0.00,,,0.00,WUHU216HW,2013-05-13 15:47:00,
2013-05-13 11:52:00,64.3,37.3,30.25,SW,225,2.7,4.9,37,0.00,,,0.00,WUHU216HW,2013-05-13 15:52:00,
2013-05-13 11:57:00,65.2,38.1,30.24,WSW,254,3.4,5.1,37,0.00,,,0.00,WUHU216HW,2013-05-13 15:57:00,
2013-05-13 12:02:00,65.9,38.0,30.24,SSW,203,1.1,5.1,36,0.00,,,0.00,WUHU216HW,2013-05-13 16:02:00,
2013-05-13 12:07:00,65.9,36.5,30.24,NW,315,5.1,5.1,34,0.00,,,0.00,WUHU216HW,2013-05-13 16:07:00,
2013-05-13 12:13:00,65.7,36.5,30.24,NNW,338,6.5,6.5,34,0.00,,,0.00,WUHU216HW,2013-05-13 16:13:00,
2013-05-13 12:18:00,66.1,36.7,30.24,WNW,299,4.3,6.5,34,0.00,,,0.00,WUHU216HW,2013-05-13 16:18:00,
2013-05-13 12:23:00,66.2,35.5,30.23,NNW,338,2.2,6.5,32,0.00,,,0.00,WUHU216HW,2013-05-13 16:23:00,
2013-05-13 12:28:00,66.2,36.2,30.23,WSW,248,3.4,4.0,33,0.00,,,0.00,WUHU216HW,2013-05-13 16:28:00,
2013-05-13 12:33:00,67.3,37.1,30.23,SW,228,3.3,4.0,33,0.00,,,0.00,WUHU216HW,2013-05-13 16:33:00,
2013-05-13 12:38:00,67.3,34.9,30.23,NE,45,3.4,4.0,30,0.00,,,0.00,WUHU216HW,2013-05-13 16:38:00,
2013-05-13 12:43:00,66.6,34.3,30.22,West,270,5.1,5.1,30,0.00,,,0.00,WUHU216HW,2013-05-13 16:43:00,
2013-05-13 12:48:00,67.0,36.8,30.22,WSW,248,5.8,5.8,33,0.00,,,0.00,WUHU216HW,2013-05-13 16:48:00,
2013-05-13 12:53:00,67.7,36.6,30.22,West,264,3.2,5.8,32,0.00,,,0.00,WUHU216HW,2013-05-13 16:53:00,
2013-05-13 12:58:00,68.0,36.2,30.22,West,270,2.7,4.3,31,0.00,,,0.00,WUHU216HW,2013-05-13 16:58:00,
2013-05-13 13:03:00,68.2,33.7,30.22,NNW,338,6.9,6.9,28,0.00,,,0.00,WUHU216HW,2013-05-13 17:03:00,
2013-05-13 13:08:00,68.0,35.5,30.22,SW,225,4.0,6.9,30,0.00,,,0.00,WUHU216HW,2013-05-13 17:08:00,
2013-05-13 13:13:00,67.9,36.1,30.21,West,270,4.0,6.9,31,0.00,,,0.00,WUHU216HW,2013-05-13 17:13:00,
2013-05-13 13:18:00,68.0,36.9,30.21,WSW,248,7.8,7.8,32,0.00,,,0.00,WUHU216HW,2013-05-13 17:18:00,
2013-05-13 13:23:00,67.7,34.2,30.21,WSW,248,4.7,7.8,29,0.00,,,0.00,WUHU216HW,2013-05-13 17:23:00,
2013-05-13 13:28:00,67.9,34.3,30.20,WSW,248,2.8,7.8,29,0.00,,,0.00,WUHU216HW,2013-05-13 17:28:00,
2013-05-13 13:33:00,67.5,29.1,30.20,NNW,338,2.7,4.7,24,0.00,,,0.00,WUHU216HW,2013-05-13 17:33:00,
2013-05-13 13:38:00,67.1,32.8,30.20,WNW,293,3.8,3.8,28,0.00,,,0.00,WUHU216HW,2013-05-13 17:38:00,
2013-05-13 13:44:00,67.7,33.2,30.20,NW,315,3.4,3.8,28,0.00,,,0.00,WUHU216HW,2013-05-13 17:44:00,
2013-05-13 13:49:00,67.7,33.2,30.19,West,281,2.7,3.4,28,0.00,,,0.00,WUHU216HW,2013-05-13 17:49:00,
2013-05-13 13:54:00,68.0,35.5,30.19,West,270,2.9,3.4,30,0.00,,,0.00,WUHU216HW,2013-05-13 17:54:00,
2013-05-13 13:59:00,68.8,34.1,30.19,West,270,3.6,3.6,28,0.00,,,0.00,WUHU216HW,2013-05-13 17:59:00,
2013-05-13 14:04:00,69.1,34.5,30.19,ESE,113,6.9,6.9,28,0.00,,,0.00,WUHU216HW,2013-05-13 18:04:00,
2013-05-13 14:09:00,69.5,36.7,30.18,East,87,3.9,6.9,30,0.00,,,0.00,WUHU216HW,2013-05-13 18:09:00,
2013-05-13 14:14:00,69.7,36.9,30.18,SW,225,4.5,6.9,30,0.00,,,0.00,WUHU216HW,2013-05-13 18:14:00,
2013-05-13 14:19:00,70.2,37.5,30.18,SW,225,1.3,4.5,30,0.00,,,0.00,WUHU216HW,2013-05-13 18:19:00,
2013-05-13 14:24:00,70.2,35.4,30.18,North,0,4.9,4.9,28,0.00,,,0.00,WUHU216HW,2013-05-13 18:24:00,
2013-05-13 14:29:00,69.8,35.1,30.17,NW,315,4.7,4.9,28,0.00,,,0.00,WUHU216HW,2013-05-13 18:29:00,
2013-05-13 14:34:00,69.5,34.7,30.17,WSW,248,4.5,4.9,28,0.00,,,0.00,WUHU216HW,2013-05-13 18:34:00,
2013-05-13 14:39:00,70.2,36.4,30.17,WSW,248,7.8,7.8,29,0.00,,,0.00,WUHU216HW,2013-05-13 18:39:00,
2013-05-13 14:44:00,70.6,36.7,30.17,WSW,248,11.6,11.6,29,0.00,,,0.00,WUHU216HW,2013-05-13 18:44:00,
2013-05-13 14:49:00,70.7,36.9,30.17,WSW,248,5.0,11.6,29,0.00,,,0.00,WUHU216HW,2013-05-13 18:49:00,
2013-05-13 14:54:00,70.9,36.0,30.16,WSW,248,9.4,11.6,28,0.00,,,0.00,WUHU216HW,2013-05-13 18:54:00,
2013-05-13 15:00:00,70.9,34.0,30.16,WSW,248,6.9,9.4,26,0.00,,,0.00,WUHU216HW,2013-05-13 19:00:00,
2013-05-13 15:05:00,70.9,34.0,30.16,WSW,248,6.9,9.4,26,0.00,,,0.00,WUHU216HW,2013-05-13 19:05:00,
2013-05-13 15:10:00,70.9,34.0,30.16,WSW,248,6.9,6.9,26,0.00,,,0.00,WUHU216HW,2013-05-13 19:10:00,
2013-05-13 15:31:00,71.6,37.7,30.15,WNW,293,2.2,2.2,29,0.00,,,0.00,WUHU216HW,2013-05-13 19:31:00,
2013-05-13 15:36:00,71.6,37.7,30.15,WNW,293,2.2,2.2,29,0.00,,,0.00,WUHU216HW,2013-05-13 19:36:00,
2013-05-13 15:59:00,72.4,37.3,30.14,NNW,338,2.5,2.5,28,0.00,,,0.00,WUHU216HW,2013-05-13 19:59:00,
2013-05-13 16:05:00,72.4,37.3,30.14,NNW,338,2.5,2.5,28,0.00,,,0.00,WUHU216HW,2013-05-13 20:05:00,
2013-05-13 16:30:00,72.4,37.3,30.13,WNW,293,3.8,3.8,28,0.00,,,0.00,WUHU216HW,2013-05-13 20:30:00,
2013-05-13 16:35:00,72.4,37.3,30.13,WNW,293,3.8,3.8,28,0.00,,,0.00,WUHU216HW,2013-05-13 20:35:00,
2013-05-13 16:59:00,71.6,37.7,30.12,WSW,248,5.4,5.4,29,0.00,,,0.00,WUHU216HW,2013-05-13 20:59:00,
2013-05-13 17:05:00,71.6,37.7,30.12,WSW,248,5.4,5.4,29,0.00,,,0.00,WUHU216HW,2013-05-13 21:05:00,
2013-05-13 17:30:00,70.9,32.9,30.12,NE,45,3.1,3.1,25,0.00,,,0.00,WUHU216HW,2013-05-13 21:30:00,
2013-05-13 17:35:00,70.9,32.9,30.12,NE,45,3.1,3.1,25,0.00,,,0.00,WUHU216HW,2013-05-13 21:35:00,
2013-05-13 17:59:00,70.0,35.2,30.12,SSE,158,3.4,3.4,28,0.00,,,0.00,WUHU216HW,2013-05-13 21:59:00,
2013-05-13 18:05:00,70.0,35.2,30.12,SSE,158,3.4,3.4,28,0.00,,,0.00,WUHU216HW,2013-05-13 22:05:00,
2013-05-13 18:10:00,70.0,35.2,30.12,SSE,158,3.4,3.4,28,0.00,,,0.00,WUHU216HW,2013-05-13 22:10:00,
2013-05-13 18:30:00,68.6,31.0,30.12,North,0,5.4,5.4,25,0.00,,,0.00,WUHU216HW,2013-05-13 22:30:00,
2013-05-13 18:35:00,68.6,31.0,30.12,North,0,5.4,5.4,25,0.00,,,0.00,WUHU216HW,2013-05-13 22:35:00,
2013-05-13 18:59:00,67.9,29.3,30.12,North,0,5.6,5.6,24,0.00,,,0.00,WUHU216HW,2013-05-13 22:59:00,
2013-05-13 19:05:00,67.9,29.3,30.12,North,0,5.6,5.6,24,0.00,,,0.00,WUHU216HW,2013-05-13 23:05:00,
2013-05-13 19:30:00,65.5,29.3,30.14,WNW,293,4.0,4.0,26,0.00,,,0.00,WUHU216HW,2013-05-13 23:30:00,
2013-05-13 19:35:00,65.5,29.3,30.14,WNW,293,4.0,4.0,26,0.00,,,0.00,WUHU216HW,2013-05-13 23:35:00,
2013-05-13 19:59:00,63.0,29.2,30.15,ESE,113,1.1,1.1,28,0.00,,,0.00,WUHU216HW,2013-05-13 23:59:00,
2013-05-13 20:05:00,63.0,29.2,30.15,ESE,113,1.1,1.1,28,0.00,,,0.00,WUHU216HW,2013-05-14 00:05:00,
2013-05-13 20:30:00,61.0,29.4,30.17,North,0,0.9,0.9,30,0.00,,,0.00,WUHU216HW,2013-05-14 00:30:00,
2013-05-13 20:35:00,61.0,29.4,30.17,North,0,0.9,0.9,30,0.00,,,0.00,WUHU216HW,2013-05-14 00:35:00,
2013-05-13 20:59:00,59.0,29.8,30.18,NW,315,0.7,0.7,33,0.00,,,0.00,WUHU216HW,2013-05-14 00:59:00,
2013-05-13 21:05:00,59.0,29.8,30.18,NW,315,0.7,0.7,33,0.00,,,0.00,WUHU216HW,2013-05-14 01:05:00,
2013-05-13 21:30:00,58.3,29.2,30.19,NNW,338,0.7,0.7,33,0.00,,,0.00,WUHU216HW,2013-05-14 01:30:00,
2013-05-13 21:35:00,58.3,29.2,30.19,NNW,338,0.7,0.7,33,0.00,,,0.00,WUHU216HW,2013-05-14 01:35:00,
2013-05-13 21:59:00,54.2,29.7,30.20,SE,135,1.8,1.8,39,0.00,,,0.00,WUHU216HW,2013-05-14 01:59:00,
2013-05-13 22:04:00,54.2,29.7,30.20,NNE,23,3.4,3.4,39,0.00,,,0.00,WUHU216HW,2013-05-14 02:04:00,
2013-05-13 22:10:00,54.2,29.7,30.20,NNE,23,3.4,3.4,39,0.00,,,0.00,WUHU216HW,2013-05-14 02:10:00,
2013-05-13 22:30:00,56.2,31.4,30.21,WSW,248,1.3,1.3,39,0.00,,,0.00,WUHU216HW,2013-05-14 02:30:00,
2013-05-13 22:35:00,56.2,31.4,30.21,WSW,248,1.3,1.3,39,0.00,,,0.00,WUHU216HW,2013-05-14 02:35:00,
2013-05-13 22:59:00,55.8,31.2,30.22,ESE,113,0.2,0.2,39,0.00,,,0.00,WUHU216HW,2013-05-14 02:59:00,
2013-05-13 23:05:00,55.8,31.2,30.22,NNW,338,0.0,0.2,39,0.00,,,0.00,WUHU216HW,2013-05-14 03:05:00,
2013-05-13 23:10:00,55.8,31.2,30.22,NNW,338,0.0,0.0,39,0.00,,,0.00,WUHU216HW,2013-05-14 03:10:00,
2013-05-13 23:30:00,56.9,32.1,30.22,WNW,293,1.8,1.8,39,0.00,,,0.00,WUHU216HW,2013-05-14 03:30:00,
2013-05-13 23:35:00,56.9,32.1,30.22,WNW,293,1.8,1.8,39,0.00,,,0.00,WUHU216HW,2013-05-14 03:35:00,
2013-05-13 23:59:00,57.4,31.9,30.23,South,180,1.3,1.3,38,0.00,,,0.00,WUHU216HW,2013-05-14 03:59:00,